www.pogodaiklimat.ru

Погода и климат >> Архив погоды >> Франц. Южн. Территории >> Martin De Vivies Ile Amsterdam


ПОГОДА в Martin De Vivies Ile Amsterdam

  • Прогноз погоды в Martin De Vivies Ile Amsterdam
  • Монитор погоды в Martin De Vivies Ile Amsterdam
  • Климат города

АРХИВ ПОГОДЫ в Martin De Vivies Ile Amsterdam

Время (UTC), дата Ветер
(напр.,м/с)
 
Видим.   Явления Облачность Т
(С)
Тd
(С)
f
(%)
Тe
(С)
Тes
(С)
Комфортность P
(гПа)
Po
(гПа)
Тmin
(С)
Tmax
(С)
R
(мм)
R24
(мм)
S
(см)
07 11.08 ЮЗ 8
{14}
н/о н/о +6.6 +3.4 80 +1 +1 1008.9 1005.3 1
08 11.08 Ю 10-15
{19}
н/о н/о +6.2 +3.4 82 0 0 1009.5 1005.9 1
09 11.08 Ю 11-20
{20}
н/о н/о +5.7 +2.3 79 -1 -1 1010.6 1007.0 3
11 11.08 Ю 10-16
{21}
н/о н/о +8.1 +1.9 65 +3 +3 1012.1 1008.6
10 11.08 Ю 10-17
{21}
н/о н/о +8.0 +1.2 62 +3 +3 1011.0 1007.5 0.4
12 11.08 Ю 8-13
{19}
н/о н/о +7.5 +0.5 61 +3 +3 1013.4 1009.8 0.4
13 11.08 ЮЗ 10-17
{17}
н/о н/о +7.2 -0.3 59 +2 +2 1014.2 1010.6 0.2
14 11.08 ЮЗ 12-21
{21}
н/о н/о +6.1 +2.2 76 -0 -0 1015.5 1011.9 1
15 11.08 ЮЗ 11-19
{22}
н/о н/о +6.4 +2.1 74 +1 +1 1016.5 1012.9 2
17 11.08 Ю 13-25
{25}
н/о н/о +6.9 +1.2 67 +1 +1 1018.6 1015.0 0.2
16 11.08 ЮЗ 11-18
{24}
н/о н/о +7.4 +2.3 70 +2 +2 1017.4 1013.8 1
18 11.08 ЮЗ 12-19
{20}
н/о н/о +7.6 +0.6 61 +2 +2 1018.9 1015.3 +4.6 +8.9 2
19 11.08 Ю 10-19
{22}
н/о н/о +7.6 +1.0 63 +2 +2 1019.6 1016.0
20 11.08 ЮЗ 14-20
{21}
н/о н/о +6.8 +1.9 71 0 0 1020.6 1017.0 0.2
21 11.08 Ю 10-16
{22}
н/о н/о +7.6 +1.2 64 +2 +2 1020.9 1017.3 0.2
23 11.08 ЮЗ 10-17
{17}
н/о н/о +7.4 +2.7 72 +2 +2 1021.7 1018.1 0.2
22 11.08 Ю 11-16
{20}
н/о н/о +6.9 +1.4 68 +1 +1 1021.2 1017.6 0.2
00 12.08 Ю 9-15
{20}
н/о н/о +7.2 +3.4 77 +2 +2 1022.4 1018.8 1
01 12.08 ЮЗ 10-16
{18}
н/о н/о +7.3 +3.3 76 +2 +2 1023.2 1019.6 0.4
02 12.08 ЮЗ 9-14
{19}
н/о н/о +8.4 +4.0 74 +4 +4 1024.0 1020.4 0.2
03 12.08 ЮЗ 8
{14}
н/о н/о +9.0 +4.4 73 +5 +5 1024.6 1021.0 1
05 12.08 0 н/о н/о +10.6 +5.1 69 1026.1 1022.5
04 12.08 0 н/о н/о +10.0 +4.6 69 1025.4 1021.8
06 12.08 0 н/о н/о +9.9 +6.1 77 1026.7 1023.1 +6.2 +10.8
07 12.08 0 н/о н/о +10.6 +5.6 71 1026.5 1022.9
08 12.08 0 н/о н/о +11.0 +4.9 66 1026.5 1022.9
09 12.08 0 н/о н/о +11.3 +5.2 66 1026.3 1022.7
11 12.08 0 н/о н/о +10.8 +5.5 70 1026.7 1023.1
10 12.08 0 н/о н/о +11.4 +4.8 64 1026.7 1023.1
12 12.08 0 н/о н/о +10.6 +5.8 72 1027.4 1023.8
13 12.08 0 н/о н/о +10.1 +5.7 74 1028.0 1024.4
14 12.08 0 н/о н/о +9.5 +5.3 75 1028.3 1024.7
15 12.08 0 н/о н/о +8.8 +5.7 81 1028.5 1024.9
17 12.08 0 н/о н/о +9.2 +5.4 77 1029.0 1025.4
16 12.08 0 н/о н/о +9.3 +6.4 82 1028.8 1025.2
18 12.08 0 н/о н/о +9.5 +4.5 71 1028.6 1025.0 +8.8 +11.9
19 12.08 0 н/о н/о +9.3 +3.7 68 1028.9 1025.3
20 12.08 0 н/о н/о +9.6 +4.0 68 1028.7 1025.1
21 12.08 0 н/о н/о +9.7 +4.5 70 1028.6 1025.0
23 12.08 0 н/о н/о +9.6 +4.2 69 1027.8 1024.2
22 12.08 0 н/о н/о +9.5 +3.7 67 1027.8 1024.2
00 13.08 0 н/о н/о +9.9 +4.5 69 1027.5 1023.9
01 13.08 0 н/о н/о +10.0 +5.4 73 1027.5 1023.9
02 13.08 0 н/о н/о +10.1 +5.3 72 1027.6 1024.0
03 13.08 0 н/о н/о +10.7 +5.4 70 1027.3 1023.7
05 13.08 0 н/о н/о +11.0 +6.3 73 1026.9 1023.3
04 13.08 0 н/о н/о +11.1 +5.4 68 1027.1 1023.5
06 13.08 0 н/о н/о +12.6 +8.1 74 1026.1 1022.6 +9.3 +12.6
07 13.08 0 н/о н/о +12.5 +7.2 70 1024.9 1021.4
08 13.08 0 н/о н/о +12.9 +8.4 74 1023.8 1020.3
09 13.08 0 н/о н/о +12.9 +8.4 74 1023.2 1019.7
11 13.08 0 н/о н/о +12.7 +9.1 79 1022.2 1018.7
10 13.08 0 н/о н/о +12.6 +8.9 78 1023.0 1019.5
12 13.08 0 н/о н/о +12.2 +10.3 88 1021.8 1018.3 0.2
13 13.08 0 н/о н/о +12.1 +10.8 92 1021.5 1018.0
14 13.08 0 н/о н/о +12.5 +11.2 92 1021.3 1017.8
15 13.08 0 н/о н/о +12.6 +11.7 94 1020.8 1017.3
17 13.08 0 н/о н/о +12.9 +12.3 96 1020.4 1016.9
16 13.08 0 н/о н/о +12.7 +11.9 95 1020.6 1017.1 0.2
18 13.08 0 н/о н/о +13.0 +12.4 96 1020.1 1016.6 +12.0 +13.4 0.2
19 13.08 0 н/о н/о +13.0 +12.4 96 1020.0 1016.5
20 13.08 0 н/о н/о +12.5 +11.9 96 1020.2 1016.7 0.2
21 13.08 0 н/о н/о +12.5 +11.9 96 1020.3 1016.8 0.2
23 13.08 З 6
{12}
н/о н/о +12.1 +11.3 95 +9 +9 1020.7 1017.2
22 13.08 З 9 н/о н/о +12.2 +11.6 96 +9 +9 1020.2 1016.7 0.2
00 14.08 З 4
{9}
н/о н/о +11.6 +10.7 94 +9 +9 1021.1 1017.6 0.2
01 14.08 З 8
{11}
н/о н/о +11.3 +9.7 90 +8 +8 1021.2 1017.7
02 14.08 ЮЗ 2
{9}
н/о н/о +11.3 +9.4 88 +10 +10 1021.7 1018.2
03 14.08 ЮЗ 4
{7}
н/о н/о +12.3 +10.0 86 +10 +10 1022.4 1018.9
05 14.08 З 4
{8}
н/о н/о +13.5 +10.7 83 +12 +12 1023.1 1019.6
04 14.08 З 5
{9}
н/о н/о +12.9 +10.6 86 +11 +11 1023.0 1019.5
06 14.08 З 4 н/о н/о +14.2 +10.0 76 +13 +13 1022.8 1019.3 +11.1 +15.0
07 14.08 СЗ 4
{7}
н/о н/о +13.3 +10.3 82 +12 +12 1022.5 1019.0
08 14.08 СЗ 2
{4}
н/о н/о +14.0 +10.0 77 +13 +13 1021.7 1018.2
09 14.08 С 4
{6}
н/о н/о +13.1 +10.5 84 +11 +11 1021.5 1018.0
11 14.08 СЗ 5
{7}
н/о н/о +12.6 +10.0 84 +10 +10 1021.8 1018.3
10 14.08 СЗ 5
{7}
н/о н/о +12.7 +9.9 83 +11 +11 1021.8 1018.3
12 14.08 СЗ 3
{6}
н/о н/о +12.3 +9.7 84 +11 +11 1021.4 1017.9
13 14.08 С 5
{6}
н/о н/о +12.2 +9.8 85 +10 +10 1021.2 1017.7
14 14.08 З 2
{5}
н/о н/о +11.6 +9.3 86 +10 +10 1021.1 1017.6
15 14.08 З 3
{4}
н/о н/о +11.4 +9.8 90 +10 +10 1021.0 1017.5 0.2
17 14.08 СЗ 6
{8}
н/о н/о +11.7 +10.3 91 +9 +9 1020.6 1017.1
16 14.08 СЗ 5
{7}
н/о н/о +11.5 +9.9 90 +9 +9 1020.8 1017.3
18 14.08 З 5
{9}
н/о н/о +11.0 +9.7 92 +8 +8 1020.1 1016.6 +10.7 +14.3
19 14.08 З 6
{9}
н/о н/о +11.2 +10.1 93 +8 +8 1020.0 1016.5
20 14.08 З 5
{10}
н/о н/о +10.9 +9.7 92 +8 +8 1019.9 1016.4
21 14.08 З 4
{6}
н/о н/о +10.6 +9.5 93 +8 +8 1019.6 1016.1
23 14.08 З 7
{12}
н/о н/о +10.9 +9.0 88 +7 +7 1019.7 1016.2
22 14.08 З 6
{9}
н/о н/о +10.8 +9.2 90 +8 +8 1019.6 1016.1
00 15.08 З 6
{11}
н/о н/о +11.0 +8.2 83 +8 +8 1019.6 1016.1
01 15.08 З 8
{12}
н/о н/о +11.7 +9.1 84 +8 +8 1020.1 1016.6
02 15.08 З 7
{13}
н/о н/о +11.8 +9.9 88 +9 +9 1020.6 1017.1
03 15.08 З 8
{11}
н/о н/о +13.0 +10.7 86 +10 +10 1021.4 1017.9
05 15.08 СЗ 6
{10}
н/о н/о +13.4 +10.9 85 +11 +11 1021.5 1018.0
04 15.08 З 6
{10}
н/о н/о +14.1 +11.4 84 +12 +12 1021.7 1018.2
06 15.08 СЗ 7 н/о н/о +13.8 +11.7 87 +11 +11 1021.0 1017.5 +10.3 +14.2
07 15.08 СЗ 10
{13}
н/о н/о +14.1 +11.6 85 +11 +11 1020.4 1016.9
08 15.08 СЗ 11
{14}
н/о н/о +14.7 +12.7 88 +12 +12 1019.9 1016.4
09 15.08 З 10
{14}
н/о н/о +14.8 +12.1 84 +12 +12 1019.8 1016.3
11 15.08 З 11
{15}
н/о н/о +13.5 +11.0 85 +10 +10 1019.6 1016.1
10 15.08 З 9
{14}
н/о н/о +14.2 +12.2 88 +11 +11 1019.9 1016.4
12 15.08 З 9
{14}
н/о н/о +12.6 +11.0 90 +9 +9 1019.6 1016.1
13 15.08 З 10
{16}
н/о н/о +12.4 +10.5 88 +9 +9 1019.5 1016.0
14 15.08 З 9
{13}
н/о н/о +12.3 +10.4 88 +9 +9 1019.8 1016.3
15 15.08 З 11
{15}
н/о н/о +12.6 +11.0 90 +9 +9 1019.8 1016.3
17 15.08 З 9
{15}
н/о н/о +12.3 +10.4 88 +9 +9 1019.8 1016.3
16 15.08 З 10
{15}
н/о н/о +12.6 +11.2 91 +9 +9 1020.2 1016.7
18 15.08 З 7
{12}
н/о н/о +12.7 +11.3 91 +10 +10 1019.4 1015.9 +12.2 +15.3
19 15.08 СЗ 8
{11}
н/о н/о +12.9 +11.8 93 +10 +10 1019.5 1016.0
20 15.08 СЗ 8
{14}
н/о н/о +13.0 +12.1 94 +10 +10 1018.7 1015.2
21 15.08 СЗ 9
{13}
н/о н/о +13.0 +12.1 94 +10 +10 1018.4 1014.9
23 15.08 СЗ 11
{16}
н/о н/о +13.2 +12.1 93 +10 +10 1017.2 1013.7
22 15.08 СЗ 10
{14}
н/о н/о +13.1 +12.2 94 +10 +10 1017.7 1014.2
00 16.08 СЗ 11
{16}
н/о н/о +13.1 +12.0 93 +10 +10 1017.0 1013.5
01 16.08 З 11
{16}
н/о н/о +13.0 +12.2 95 +9 +9 1017.0 1013.5
02 16.08 З 10
{16}
н/о н/о +13.1 +12.5 96 +10 +10 1017.3 1013.8 0.2
03 16.08 З 10
{15}
н/о н/о +13.4 +12.8 96 +10 +10 1017.7 1014.2 0.2
05 16.08 З 10-15
{16}
н/о н/о +14.3 +12.5 89 +12 +12 1018.5 1015.0
04 16.08 З 9
{14}
н/о н/о +13.3 +12.7 96 +10 +10 1018.2 1014.7 0.2
06 16.08 З 6 н/о н/о +14.2 +11.4 83 +12 +12 1018.8 1015.3 +12.6 +15.0 0.2
07 16.08 З 8
{12}
н/о н/о +15.1 +10.3 73 +13 +13 1018.7 1015.2
08 16.08 З 6
{12}
н/о н/о +15.0 +9.8 71 +13 +13 1018.1 1014.6
09 16.08 З 7
{10}
н/о н/о +14.6 +10.0 74 +13 +13 1018.0 1014.5
11 16.08 З 8
{13}
н/о н/о +13.1 +9.0 76 +10 +10 1018.2 1014.7
10 16.08 З 7
{11}
н/о н/о +14.1 +9.5 74 +12 +12 1018.0 1014.5
12 16.08 З 6
{12}
н/о н/о +12.0 +8.7 80 +9 +9 1018.1 1014.6
13 16.08 З 7
{10}
н/о н/о +11.6 +9.0 84 +8 +8 1018.0 1014.5
14 16.08 З 7
{10}
н/о н/о +11.5 +8.5 82 +8 +8 1018.2 1014.7
15 16.08 З 8
{12}
н/о н/о +11.7 +8.5 81 +8 +8 1018.4 1014.9
17 16.08 З 7
{10}
н/о н/о +12.0 +9.6 85 +9 +9 1017.1 1013.6
16 16.08 З 7
{12}
н/о н/о +11.7 +9.1 84 +8 +8 1017.5 1014.0
18 16.08 З 7
{10}
н/о н/о +12.0 +9.7 86 +9 +9 1016.4 1012.9 +11.4 +15.3
19 16.08 З 7
{12}
н/о н/о +12.1 +9.7 85 +9 +9 1016.0 1012.5
20 16.08 З 8
{12}
н/о н/о +12.2 +9.9 86 +9 +9 1015.6 1012.1
21 16.08 З 9
{14}
н/о н/о +11.9 +9.3 84 +8 +8 1014.8 1011.3
23 16.08 З 8
{14}
н/о н/о +12.3 +9.5 83 +9 +9 1014.0 1010.5
22 16.08 З 10
{15}
н/о н/о +12.0 +9.0 82 +8 +8 1014.4 1010.9
00 17.08 З 9
{13}
н/о н/о +12.4 +9.9 85 +9 +9 1014.1 1010.6
01 17.08 З 8
{15}
н/о н/о +12.5 +10.2 86 +9 +9 1013.9 1010.4
02 17.08 ЮЗ 9-14
{19}
н/о н/о +10.6 +8.0 84 +7 +7 1014.8 1011.3 2
03 17.08 ЮЗ 11-17
{18}
н/о н/о +10.4 +8.2 86 +6 +6 1016.2 1012.7 2
05 17.08 Ю 12-19
{20}
н/о н/о +10.3 +4.4 67 +6 +6 1019.1 1015.6
04 17.08 Ю 13-20
{21}
н/о н/о +9.5 +6.2 80 +4 +4 1017.8 1014.3 1
06 17.08 ЮЗ 10 н/о н/о +10.9 +2.5 56 +7 +7 1020.2 1016.7 +9.4 +12.5 1
07 17.08 ЮЗ 11-17
{21}
н/о н/о +11.0 +0.7 49 +7 +7 1020.5 1017.0
08 17.08 ЮЗ 11-22
{22}
н/о н/о +11.0 +1.0 50 +7 +7 1021.1 1017.6
09 17.08 ЮЗ 10-17
{17}
н/о н/о +10.9 +0.3 48 +7 +7 1022.0 1018.5
11 17.08 Ю 9-15
{17}
н/о н/о +8.9 -0.4 52 +5 +5 1024.2 1020.6
10 17.08 ЮЗ 10-17
{20}
н/о н/о +10.2 +0.2 50 +6 +6 1023.4 1019.8
12 17.08 Ю 9-15
{19}
н/о н/о +8.6 +0.6 57 +4 +4 1025.1 1021.5
13 17.08 Ю 9
{15}
н/о н/о +8.2 +1.8 64 +3 +3 1026.3 1022.7
14 17.08 Ю 5
{14}
н/о н/о +8.1 +0.6 59 +5 +5 1027.6 1024.0
15 17.08 Ю 4
{14}
н/о н/о +7.9 +2.1 67 +5 +5 1028.4 1024.8
17 17.08 ЮЗ 1
{8}
н/о н/о +8.0 +0.2 58 +8 +8 1029.9 1026.3
16 17.08 ЮЗ 2
{7}
н/о н/о +8.1 +0.6 59 +7 +7 1029.3 1025.7
18 17.08 Ю 1
{4}
н/о н/о +8.2 +0.4 58 +8 +8 1030.0 1026.4 +7.1 +11.9
19 17.08 ЮЗ 4
{5}
н/о н/о +7.6 +1.4 65 +5 +5 1030.4 1026.8
20 17.08 Ю 3
{5}
н/о н/о +7.8 +2.0 67 +6 +6 1030.7 1027.1
21 17.08 Ю 4
{7}
н/о н/о +8.5 +1.9 63 +6 +6 1030.7 1027.1
23 17.08 ЮЗ 3
{5}
н/о н/о +8.3 +2.5 67 +6 +6 1030.2 1026.6
22 17.08 ЮЗ 3
{7}
н/о н/о +8.4 +1.3 61 +6 +6 1030.2 1026.6
00 18.08 ЮЗ 5
{5}
н/о н/о +6.4 +0.7 67 +3 +3 1030.6 1027.0
01 18.08 ЮЗ 3
{5}
н/о н/о +5.8 +0.7 70 +3 +3 1030.9 1027.3
02 18.08 З 4
{8}
н/о н/о +6.9 +1.6 69 +4 +4 1031.0 1027.4
03 18.08 З 5
{8}
н/о н/о +9.4 +2.5 62 +7 +7 1030.9 1027.3
05 18.08 СЗ 7
{10}
н/о н/о +11.0 +4.0 62 +8 +8 1030.1 1026.5
04 18.08 СЗ 6
{8}
н/о н/о +10.7 +3.7 62 +8 +8 1030.5 1026.9

 

Местоположение метеостанции Martin De Vivies Ile Amsterdam (Франц. Южн. Территории): широта -37.80 долгота 77.50 высота над уровнем моря 29 м.

В архиве по умолчанию представлена погода в Martin De Vivies Ile Amsterdam за последнюю неделю. Архивные данные за месяц целиком и за предыдущие месяцы, начиная с января 2011 года, Вы можете получить, выбрав интересующий диапазон дат из раскрывающегося списка и нажав кнопку "Ввод!".


*Определитесь, кто Вы:
робот инопланетянин человек

Внимание! Время в таблицах - всемирное. Для получения местного времени необходимо прибавить поправку, которая в Martin De Vivies Ile Amsterdam равна 5 ч.

Смотрите также архив погоды в соседних городах и на ближайших метеорологических станциях:

Погода в Port-Aux-Francais Iles Kerguelen (Франц. Южн. Территории) (1406 км)
Погода в Heard Island (Австралия) (1727 км)
Погода в Sir Gaetan Duval Airport (Маврикий) (2428 км)
Погода в Rodrigues (Маврикий) (2432 км)
Погода в Sir Seewoosagur Ramgoolam Airport (Маврикий) (2716 км)
Погода в Vacoas Mauritius (Маврикий) (2739 км)

Пояснения к столбцам:

Ветер - указаны скорость ветра в м/с - средняя за 10 мин, порывы в срок и между сроками (в фигурных скобках) и направление, откуда дует ветер: С - северный, СВ - северо-восточный, В - восточный, ЮВ - юго-восточный, Ю - южный, ЮЗ - юго-западный, З - западный, СЗ - северо-западный.
Видимость - горизонтальная дальность видимости в метрах или километрах. При видимости от 1 до 10 км при отсутствии осадков обычно наблюдается дымка, при ухудшении видимости до 1 км и менее - туман. В сухую погоду видимость может ухудшаться дымом, пылью или мглою.
Явления - указаны атмосферные явления, наблюдавшиеся в срок или в последний час перед сроком; фигурными скобками обозначены явления, наблюдавшиеся между сроками (за 1-3 часа до срока); квадратными скобками обозначены град или гололедные отложения с указанием их диаметра в мм.
Облачность - указаны через наклонную черту общая и нижняя облачность в баллах и высота нижней границы облаков в метрах; квадратными скобками обозначены формы облаков: Ci - перистые, Cs - перисто-слоистые, Cc - перисто-кучевые, Ac - высококучевые, As - высокослоистые, Sc - слоисто-кучевые, Ns - слоисто-дождевые, Cu - кучевые, Cb - кучево-дождевые. Подробнее классификацию облаков см. в Атласе облаков (PDF).
T - Температура воздуха - температура, измеренная на высоте 2 м над землей.
Td - Температура точки росы - температура, при понижении до которой содержащийся в воздухе водяной пар достигнет насыщения.
f - Относительная влажность воздуха - влажноcть воздуха, измеренная на высоте 2 м над землей.
Te - Эффективная температура - температура, которую ощущает одетый по сезону человек в тени. Характеристика душности погоды. При расчете учитывается влияние влажности воздуха и скорости ветра на теплоощущения человека.
Tes - Эффективная температура на солнце - температура, которую ощущает человек, с поправкой на солнечный нагрев. Характеристика знойности погоды. Зависит от высоты солнца над горизонтом, облачности и скорости ветра. Ночью, в пасмурную погоду, а также при ветре 12 м/с и более поправка равна нулю.
P - Атмосферное давление - приведенное к уровню моря атмосферное давление.
Po - Атмосферное давление - измеренное на уровне метеостанции атмосферное давление.
Tmin - Минимальная температура - минимум температуры воздуха на высоте 2 м над землей.
Tmax - Максимальная температура - максимум температуры воздуха на высоте 2 м над землей.
R - Количество осадков - Количество выпавших осадков за период времени, мм. При наведении курсора мыши на число - период времени, за который выпало указанное количество осадков.
R24 - Количество осадков - Количество выпавших осадков за 24 часа, мм.
S - Снежный покров - Высота снежного покрова, см. При наведении курсора мыши на число - состояние снежного покрова и степень покрытия местности в баллах.